2023-001R (55024 NORAD) Tracking and Keplerian Element Data

This shows tracking and keplerian element data for the satellite.

Feedback or suggestion? Click here.




ElementValue
Catalog55024
Name2023-001R
Epoch Orbit169
Epoch Day13.78677808
Epoch Year2023
RAAN75.7326
Inclination97.5037
Eccentricity0.0011613
Argument of Perigee183.3349
Mean Anonmoly176.7806
Mean Motion15.12435412
Decay Rate0.00012155
L11 55024U 23001R 23013.78677808 .00012155 00000+0 70142-3 0 9992
L22 55024 97.5037 75.7326 0011613 183.3349 176.7806 15.12435412 1691



Live tracking and technical data element details for 2023-001R (NORAD 55024). 2023-001R can be tracked NOW for your location showing map with azimuth and elevation plus other details from your city location.







IsCatalogInMostPopularTable: catalog: 55024, numindb: 3
Update: records affected: 1



GetName: 55024 2023-001R

Hit Count: updated at: Tue, 07 Feb 2023 14:06:31 GMT